Wind_Speed
12 12 12 12 11 12 12 12 13 12 12 13 13 14 14 15 15 14 14 14 15 14 13 13 14 14 14 15 15 15 15 15 15 15 15 16 16 16 16 15 16 16 15
13 13 13 13 13 13 13 13 14 14 13 14 14 14 14 15 15 15 14 14 15 15 15 15 15 16 16 15 15 15 15 16 16 16 16 16 16 16 17 17 17 17 17
14 14 14 13 14 14 14 15 14 14 14 14 14 15 14 15 15 15 14 14 15 15 15 16 16 16 16 16 16 16 16 16 16 17 17 17 17 17 17 18 18 18 18
15 15 15 15 14 14 15 15 15 15 15 15 15 15 15 15 15 15 15 15 15 15 16 16 16 16 17 17 17 17 17 17 17 18 18 18 18 18 18 19 19 19 19
16 16 16 15 15 15 15 16 16 16 16 16 15 14 15 15 16 16 15 16 16 16 16 17 17 17 18 17 17 18 18 18 18 18 19 19 18 19 19 19 20 19 19
17 17 17 16 16 16 16 17 17 17 16 16 16 15 16 17 17 16 16 16 17 17 17 17 18 18 18 18 19 19 19 19 19 19 19 19 19 20 20 19 19 20 19
17 18 18 18 18 17 17 17 18 18 17 17 17 16 17 18 18 17 17 16 17 17 18 18 19 20 19 19 19 19 19 19 19 19 19 19 20 20 19 19 18 19 19
19 19 18 19 19 18 18 18 18 18 18 19 18 17 19 19 18 18 18 18 18 18 18 19 20 20 20 20 19 19 19 19 19 19 19 19 20 19 18 18 18 18 18
20 20 20 20 21 20 19 19 19 19 19 19 19 19 19 18 17 17 18 18 18 18 18 19 20 19 19 19 19 19 18 18 18 18 18 19 20 19 18 19 18 18 18
21 21 22 23 23 22 21 20 18 18 18 19 20 20 19 18 18 18 19 19 19 19 19 18 18 19 19 19 18 19 18 18 18 18 17 18 19 19 19 19 18 18 19
21 22 23 24 24 23 22 20 19 19 19 19 19 19 18 19 19 20 20 20 20 21 19 19 18 18 18 18 17 17 17 17 17 17 17 17 17 18 18 18 18 18 19
23 23 23 24 23 22 21 21 20 20 20 20 19 18 19 20 20 21 21 21 20 20 19 18 17 17 17 17 17 17 17 17 17 17 16 16 16 17 17 18 18 19 19
24 24 24 23 22 21 21 21 20 19 20 21 20 19 19 19 20 20 21 20 19 19 18 17 16 16 16 16 16 16 16 16 16 16 16 15 16 17 17 18 19 19 19
24 24 24 23 23 22 21 21 20 20 20 20 20 19 18 18 19 19 19 18 17 17 16 16 15 16 16 16 16 16 16 16 16 15 16 16 16 16 17 18 18 19 18
24 24 24 24 24 23 22 21 21 21 21 20 19 19 19 18 18 18 18 17 16 16 15 15 15 16 16 16 16 16 16 16 16 16 17 17 17 17 17 17 18 18 18
25 25 24 24 24 23 22 21 22 21 21 20 20 20 20 19 19 19 19 18 16 16 15 16 16 16 16 16 16 16 15 15 15 16 17 17 17 17 17 17 17 17 17
25 26 26 25 24 24 22 21 21 20 21 20 20 20 20 20 19 19 18 17 17 17 17 17 17 17 17 16 16 16 16 16 16 16 16 17 17 17 17 17 17 17 18
26 26 25 25 24 24 23 22 20 21 20 21 20 21 20 19 18 18 18 18 18 18 18 18 18 17 17 16 15 16 16 16 16 16 16 17 17 17 17 17 18 19 19
27 27 26 25 24 24 24 23 21 21 21 21 21 21 21 20 19 19 19 18 18 18 18 18 18 17 17 18 17 16 16 16 16 16 17 16 16 16 17 18 19 20 20
28 27 27 26 26 24 24 24 22 22 22 22 21 21 21 21 20 20 19 19 19 18 17 17 17 18 18 18 18 17 16 16 16 16 16 16 16 17 17 18 18 20 20
27 27 28 27 26 25 25 24 23 23 22 22 22 21 21 20 20 20 19 19 19 18 18 17 17 17 17 17 17 16 16 16 16 16 16 16 17 17 18 18 18 19 19
29 29 28 28 28 27 26 25 24 23 23 23 22 22 21 21 21 20 20 20 19 19 18 18 18 18 18 17 17 17 16 16 17 16 16 17 17 17 18 18 18 19 20
28 28 29 28 27 26 26 25 25 24 24 24 23 22 22 21 21 21 21 20 19 19 18 18 17 18 18 17 17 18 18 18 17 17 17 17 18 18 18 19 19 20 20
27 27 27 27 26 26 26 26 26 26 26 25 23 23 22 22 22 22 21 20 20 19 19 17 17 17 17 17 18 18 18 18 18 18 18 18 18 19 20 20 20 20 20
27 27 27 26 27 27 26 26 26 26 26 25 24 23 23 23 23 22 21 21 20 19 18 18 18 18 18 18 19 19 18 18 18 19 19 19 19 20 20 19 19 18 18
26 26 26 26 26 26 26 26 26 26 26 26 25 24 23 23 23 23 22 21 20 19 19 19 19 19 19 19 19 19 18 18 18 19 19 19 19 19 18 18 18 17 17
Wind_Direction
287 287 290 291 295 297 300 305 304 297 296 297 299 298 297 299 298 295 297 299 302 302 298 298 297 295 292 288 282 278 273 270 269 266 264 261 262 262 259 259 258 258 258
282 284 286 289 292 291 293 299 302 298 297 296 297 295 296 300 297 295 295 298 305 303 304 300 297 295 293 288 283 279 275 269 266 263 263 262 261 261 259 260 259 258 258
276 279 281 287 288 288 289 292 298 300 298 296 294 294 298 298 297 296 295 297 300 304 302 301 296 293 291 287 284 281 277 272 268 266 265 264 264 261 260 260 260 259 259
273 275 279 282 284 286 285 286 291 294 300 299 297 296 298 301 300 299 296 296 298 300 302 300 297 293 290 287 284 280 277 273 271 268 266 265 264 262 260 260 260 260 259
270 272 275 278 282 286 287 287 286 290 293 296 300 298 302 303 301 299 292 291 292 295 297 295 296 294 291 288 284 280 276 273 272 270 268 266 264 264 263 261 259 258 259
267 268 271 274 279 284 286 286 287 290 291 293 300 302 303 303 302 301 294 291 289 291 291 290 293 293 290 289 285 280 277 274 273 272 269 266 264 265 264 264 261 257 257
266 266 269 274 280 282 283 283 286 289 289 292 299 299 300 301 301 300 298 292 290 291 289 290 291 291 289 287 285 281 277 274 273 271 268 265 263 264 263 263 262 257 256
267 269 271 276 279 280 282 284 286 290 292 294 296 296 299 299 300 301 301 293 289 289 286 288 291 289 287 285 284 281 278 274 273 271 268 267 262 262 264 264 263 259 255
268 271 273 277 279 280 282 284 285 288 293 294 295 295 298 297 299 301 301 295 290 290 290 291 290 289 287 286 285 283 279 275 272 272 270 269 266 263 263 263 263 262 259
270 273 275 277 280 280 281 282 283 287 291 291 292 292 293 293 296 298 300 297 291 289 290 292 291 290 287 287 286 285 283 279 275 274 272 269 266 263 262 263 264 263 263
275 276 276 277 280 281 281 279 279 282 287 292 292 291 290 291 295 298 298 295 291 288 288 290 291 291 287 286 287 286 285 280 275 272 271 268 265 264 263 264 266 264 264
274 274 276 276 278 279 279 277 278 281 284 289 291 289 290 291 295 298 298 298 293 287 287 290 290 289 287 285 284 285 286 282 276 273 271 267 266 264 263 264 265 265 265
272 275 278 277 278 277 277 278 277 279 283 287 287 287 289 291 295 297 298 299 295 290 288 289 289 290 289 289 289 288 285 282 278 273 269 268 268 266 268 268 267 266 266
271 274 277 278 279 279 277 278 275 277 280 285 286 286 290 293 296 296 298 299 296 293 290 288 289 290 289 289 290 290 286 280 277 272 269 267 267 269 271 271 269 267 265
272 273 275 276 278 279 277 274 272 274 277 281 285 287 288 291 294 293 295 296 295 293 292 289 288 290 291 290 290 291 286 280 277 274 270 268 266 268 272 271 270 268 266
271 273 274 276 278 278 276 274 272 272 275 279 284 287 288 291 292 292 292 292 291 289 290 291 291 292 292 291 290 289 287 281 279 278 273 269 268 268 269 268 268 267 266
271 273 274 278 279 279 277 275 273 273 274 278 282 284 286 288 291 290 290 290 290 287 288 291 291 292 293 293 291 288 286 281 277 278 274 268 267 268 269 268 267 268 269
269 272 274 276 278 279 278 276 272 274 275 277 280 284 285 287 289 290 289 287 287 286 284 287 290 291 291 291 290 287 283 281 279 276 277 270 266 268 267 269 268 270 270
267 269 272 276 278 278 278 276 274 275 276 277 279 282 282 283 284 286 287 287 286 285 284 285 288 288 287 288 289 289 287 283 280 276 275 274 270 268 270 272 272 271 271
268 268 270 274 276 277 275 274 274 275 275 276 277 279 279 281 283 284 284 285 284 283 283 284 285 287 286 287 288 289 288 285 282 279 277 276 274 272 272 273 274 273 272
269 270 271 273 275 275 273 273 273 273 274 276 276 276 276 279 281 282 282 282 283 283 283 283 283 283 284 287 287 287 287 286 284 281 279 278 278 275 273 274 276 275 273
268 269 270 273 273 272 270 270 271 272 273 275 276 277 276 278 280 282 281 280 280 281 282 283 281 281 281 283 283 281 283 284 285 282 279 277 277 277 277 276 278 276 273
269 268 268 271 272 268 267 268 269 270 271 272 274 275 275 275 278 279 280 279 278 279 280 281 281 282 280 280 280 280 281 282 283 282 280 279 277 278 280 282 280 278 276
268 268 268 270 269 266 266 268 269 270 270 270 271 272 273 273 275 278 279 278 278 278 278 276 278 282 281 278 279 281 281 279 279 278 277 277 278 279 281 281 281 280 279
264 265 266 267 268 267 267 268 269 270 269 269 269 271 271 271 272 274 275 276 277 276 275 276 277 279 281 279 279 282 282 281 280 279 278 278 278 279 279 280 282 281 280
263 264 265 266 266 267 267 268 268 268 268 267 267 268 269 269 270 270 271 273 273 273 274 276 278 278 280 281 279 280 282 281 280 280 281 280 279 280 279 279 279 279 279
Height
5867 5867 5867 5866 5865 5864 5863 5862 5861 5860 5859 5858 5858 5857 5856 5854 5853 5852 5851 5850 5849 5847 5846 5845 5844 5843 5842 5841 5841 5840 5840 5840 5840 5841 5841 5841 5841 5842 5842 5842 5843 5843 5843
5864 5864 5864 5863 5862 5862 5860 5860 5858 5857 5857 5855 5854 5853 5852 5851 5850 5849 5848 5847 5846 5845 5843 5842 5841 5840 5838 5837 5837 5836 5836 5836 5836 5836 5836 5837 5837 5837 5837 5838 5838 5838 5839
5861 5860 5860 5860 5860 5859 5858 5857 5856 5855 5854 5852 5851 5850 5849 5848 5847 5845 5844 5844 5843 5842 5840 5838 5837 5836 5835 5834 5833 5832 5832 5831 5831 5831 5832 5832 5832 5832 5833 5833 5833 5833 5834
5857 5857 5857 5857 5856 5856 5854 5854 5853 5852 5850 5849 5848 5847 5846 5845 5843 5842 5841 5840 5839 5838 5836 5835 5833 5832 5830 5829 5828 5828 5827 5826 5826 5826 5826 5827 5827 5827 5828 5828 5828 5828 5829
5853 5853 5853 5853 5853 5852 5851 5850 5849 5848 5847 5846 5845 5844 5842 5841 5840 5838 5837 5836 5835 5834 5832 5831 5829 5828 5826 5825 5824 5823 5822 5822 5821 5821 5821 5821 5821 5822 5823 5823 5823 5823 5823
5849 5849 5849 5849 5849 5848 5847 5846 5845 5845 5844 5843 5841 5840 5838 5837 5836 5834 5833 5832 5831 5830 5828 5827 5825 5824 5822 5820 5819 5818 5817 5816 5816 5815 5815 5816 5816 5816 5816 5817 5817 5818 5818
5844 5845 5845 5844 5844 5844 5843 5842 5841 5840 5840 5839 5838 5836 5835 5834 5832 5830 5829 5828 5827 5825 5824 5822 5821 5819 5817 5815 5814 5812 5811 5810 5810 5809 5809 5809 5810 5810 5811 5811 5812 5812 5813
5840 5840 5840 5840 5839 5839 5838 5837 5836 5836 5835 5834 5833 5832 5831 5830 5828 5826 5825 5823 5821 5820 5818 5817 5815 5813 5812 5810 5808 5806 5805 5804 5804 5803 5803 5803 5803 5804 5805 5806 5807 5807 5808
5835 5835 5835 5834 5834 5834 5833 5832 5832 5831 5830 5829 5829 5828 5827 5825 5824 5822 5820 5818 5817 5815 5814 5812 5809 5807 5806 5804 5802 5800 5799 5798 5798 5798 5797 5797 5797 5798 5799 5801 5801 5802 5803
5830 5829 5829 5829 5829 5828 5828 5827 5827 5826 5826 5825 5824 5823 5822 5820 5819 5817 5815 5813 5812 5810 5808 5806 5803 5801 5800 5799 5797 5795 5793 5793 5793 5792 5792 5792 5792 5793 5794 5795 5796 5797 5798
5824 5824 5824 5823 5823 5822 5821 5821 5821 5821 5821 5820 5819 5818 5817 5815 5814 5812 5810 5808 5806 5804 5802 5801 5798 5796 5795 5794 5792 5790 5789 5788 5788 5787 5787 5787 5787 5788 5789 5790 5791 5791 5792
5819 5819 5818 5817 5817 5816 5816 5816 5816 5816 5815 5815 5814 5813 5812 5810 5809 5806 5804 5802 5799 5798 5796 5795 5793 5792 5790 5789 5787 5786 5785 5783 5783 5782 5782 5783 5783 5784 5784 5785 5786 5786 5787
5813 5812 5812 5811 5811 5810 5810 5810 5810 5810 5810 5809 5809 5808 5807 5805 5804 5801 5799 5796 5794 5792 5791 5789 5788 5787 5786 5785 5783 5781 5780 5779 5779 5778 5778 5779 5779 5780 5780 5780 5780 5781 5781
5807 5806 5806 5805 5805 5805 5805 5804 5804 5804 5804 5804 5803 5802 5801 5800 5798 5796 5794 5792 5789 5788 5786 5785 5784 5783 5782 5780 5779 5777 5776 5775 5775 5774 5775 5775 5775 5775 5775 5775 5776 5776 5776
5800 5800 5800 5799 5799 5799 5799 5798 5798 5799 5799 5799 5798 5797 5797 5795 5794 5792 5790 5788 5786 5784 5783 5781 5780 5779 5778 5776 5774 5773 5772 5771 5771 5770 5770 5771 5771 5771 5771 5771 5771 5771 5771
5793 5793 5794 5794 5794 5793 5793 5793 5793 5793 5793 5793 5793 5792 5791 5790 5788 5787 5785 5784 5782 5781 5779 5778 5776 5775 5773 5771 5770 5768 5767 5767 5766 5766 5766 5765 5766 5766 5766 5766 5766 5766 5767
5787 5787 5787 5787 5787 5787 5787 5787 5786 5786 5787 5787 5787 5786 5785 5784 5783 5781 5780 5779 5778 5777 5775 5774 5772 5770 5769 5767 5765 5764 5763 5762 5762 5761 5761 5761 5761 5761 5761 5761 5761 5762 5762
5780 5780 5780 5780 5780 5780 5780 5780 5780 5781 5781 5781 5781 5780 5779 5778 5777 5776 5775 5774 5773 5771 5770 5769 5767 5766 5764 5762 5761 5759 5758 5758 5757 5757 5756 5756 5756 5756 5756 5756 5756 5756 5757
5772 5772 5772 5773 5773 5773 5773 5773 5774 5774 5774 5775 5775 5774 5773 5773 5771 5770 5769 5768 5767 5766 5765 5764 5762 5761 5759 5758 5756 5755 5754 5753 5753 5752 5752 5752 5752 5751 5751 5751 5751 5751 5751
5764 5765 5765 5765 5766 5766 5766 5766 5767 5767 5768 5768 5768 5768 5767 5766 5765 5765 5763 5762 5761 5760 5759 5758 5757 5756 5754 5753 5752 5750 5749 5749 5748 5748 5748 5747 5747 5747 5746 5746 5746 5746 5745
5757 5757 5758 5758 5758 5759 5759 5759 5760 5761 5761 5761 5761 5761 5760 5760 5759 5758 5757 5756 5755 5754 5753 5753 5751 5750 5749 5748 5747 5746 5745 5744 5743 5743 5743 5742 5742 5742 5741 5741 5740 5740 5740
5749 5749 5750 5750 5751 5751 5751 5752 5753 5753 5753 5754 5753 5753 5753 5753 5752 5752 5751 5750 5749 5748 5748 5747 5746 5745 5744 5743 5742 5741 5740 5739 5739 5738 5738 5737 5737 5736 5736 5736 5735 5734 5734
5740 5741 5741 5742 5742 5743 5743 5744 5745 5745 5746 5746 5746 5746 5746 5746 5745 5745 5744 5744 5743 5742 5742 5741 5740 5739 5738 5737 5736 5736 5735 5734 5734 5733 5733 5732 5732 5731 5731 5730 5729 5729 5728
5732 5732 5733 5734 5734 5735 5735 5736 5737 5737 5738 5739 5739 5739 5739 5739 5738 5738 5737 5737 5736 5736 5735 5735 5734 5733 5733 5732 5731 5730 5729 5729 5728 5728 5727 5727 5726 5725 5725 5724 5723 5722 5722
5723 5724 5725 5725 5726 5726 5727 5728 5728 5729 5730 5730 5731 5731 5731 5731 5731 5731 5730 5730 5730 5729 5729 5729 5728 5728 5727 5726 5726 5724 5724 5723 5723 5722 5722 5721 5720 5720 5719 5718 5717 5716 5716
5715 5716 5716 5717 5718 5718 5718 5719 5720 5721 5721 5722 5723 5723 5723 5723 5723 5723 5723 5723 5723 5723 5723 5723 5722 5722 5721 5720 5719 5719 5718 5717 5717 5716 5716 5715 5714 5714 5713 5712 5712 5711 5710